TimeCST,TemperatureF,Dew PointF,Humidity,Sea Level PressureIn,VisibilityMPH,Wind Direction,Wind SpeedMPH,Gust SpeedMPH,PrecipitationIn,Events,Conditions,WindDirDegrees,DateUTC
12:15 AM,32.0,28.4,87,29.94,7.0,North,4.6,-,N/A,,Overcast,360,2013-02-05 06:15:00
12:35 AM,32.0,28.4,87,29.95,7.0,North,5.8,-,N/A,,Overcast,350,2013-02-05 06:35:00
12:55 AM,32.0,28.4,87,29.95,7.0,North,4.6,-,N/A,,Overcast,350,2013-02-05 06:55:00
1:15 AM,30.2,28.4,93,29.94,7.0,NNW,4.6,-,N/A,,Scattered Clouds,340,2013-02-05 07:15:00
1:35 AM,30.2,28.4,93,29.95,7.0,Calm,Calm,-,N/A,,Clear,0,2013-02-05 07:35:00
1:55 AM,30.2,28.4,93,29.94,7.0,Calm,Calm,-,N/A,,Scattered Clouds,0,2013-02-05 07:55:00
2:15 AM,30.2,28.4,93,29.94,5.0,Calm,Calm,-,N/A,,Scattered Clouds,0,2013-02-05 08:15:00
2:35 AM,28.4,28.4,100,29.94,5.0,Calm,Calm,-,N/A,,Clear,0,2013-02-05 08:35:00
2:55 AM,28.4,28.4,100,29.93,5.0,Calm,Calm,-,N/A,,Clear,0,2013-02-05 08:55:00
3:15 AM,28.4,28.4,100,29.93,5.0,Calm,Calm,-,N/A,,Clear,0,2013-02-05 09:15:00
3:35 AM,28.4,28.4,100,29.94,5.0,NW,3.5,-,N/A,,Clear,310,2013-02-05 09:35:00
3:55 AM,28.4,28.4,100,29.95,5.0,NW,3.5,-,N/A,,Clear,320,2013-02-05 09:55:00
4:15 AM,28.4,26.6,93,29.94,5.0,Calm,Calm,-,N/A,,Clear,0,2013-02-05 10:15:00
4:35 AM,26.6,26.6,100,29.95,4.0,NW,3.5,-,N/A,,Clear,310,2013-02-05 10:35:00
4:55 AM,26.6,26.6,100,29.95,5.0,NNW,3.5,-,N/A,,Clear,330,2013-02-05 10:55:00
5:15 AM,28.4,26.6,93,29.95,5.0,Calm,Calm,-,N/A,,Clear,0,2013-02-05 11:15:00
5:35 AM,26.6,26.6,100,29.94,4.0,Calm,Calm,-,N/A,,Clear,0,2013-02-05 11:35:00
5:55 AM,26.6,26.6,100,29.95,4.0,Calm,Calm,-,N/A,,Clear,0,2013-02-05 11:55:00
6:15 AM,28.4,28.4,100,29.96,3.0,Calm,Calm,-,N/A,,Clear,0,2013-02-05 12:15:00
6:35 AM,28.4,28.4,100,29.97,4.0,Calm,Calm,-,N/A,,Clear,0,2013-02-05 12:35:00
6:55 AM,28.4,28.4,100,29.97,3.0,Calm,Calm,-,N/A,,Clear,0,2013-02-05 12:55:00
7:15 AM,28.4,28.4,100,29.97,3.0,Calm,Calm,-,N/A,,Clear,0,2013-02-05 13:15:00
7:35 AM,30.2,28.4,93,29.97,3.0,Calm,Calm,-,N/A,,Clear,0,2013-02-05 13:35:00
7:55 AM,30.2,28.4,93,29.96,3.0,Calm,Calm,-,N/A,,Clear,0,2013-02-05 13:55:00
8:15 AM,30.2,28.4,93,29.97,3.0,Calm,Calm,-,N/A,,Clear,0,2013-02-05 14:15:00
8:35 AM,30.2,28.4,93,29.97,4.0,South,3.5,-,N/A,,Clear,180,2013-02-05 14:35:00
8:55 AM,32.0,28.4,87,29.97,7.0,South,4.6,-,N/A,,Clear,170,2013-02-05 14:55:00
9:15 AM,33.8,28.4,81,29.96,7.0,South,6.9,-,N/A,,Clear,180,2013-02-05 15:15:00
9:35 AM,33.8,28.4,81,29.96,7.0,South,6.9,-,N/A,,Clear,180,2013-02-05 15:35:00
9:55 AM,33.8,28.4,81,29.96,7.0,South,9.2,-,N/A,,Clear,180,2013-02-05 15:55:00
10:15 AM,33.8,28.4,81,29.95,7.0,South,6.9,-,N/A,,Clear,180,2013-02-05 16:15:00
10:55 AM,37.4,30.2,75,29.95,7.0,SSW,6.9,-,N/A,,Clear,210,2013-02-05 16:55:00
11:15 AM,37.4,30.2,75,29.94,7.0,SSW,6.9,-,N/A,,Clear,200,2013-02-05 17:15:00
11:35 AM,39.2,32.0,75,29.93,7.0,SW,5.8,-,N/A,,Clear,220,2013-02-05 17:35:00
11:55 AM,41.0,33.8,76,29.92,7.0,SW,10.4,-,N/A,,Scattered Clouds,220,2013-02-05 17:55:00
12:15 PM,42.8,33.8,70,29.91,7.0,SSW,10.4,-,N/A,,Scattered Clouds,210,2013-02-05 18:15:00
12:35 PM,42.8,33.8,70,29.90,7.0,SW,9.2,-,N/A,,Clear,220,2013-02-05 18:35:00
12:55 PM,44.6,33.8,66,29.90,7.0,SSW,9.2,-,N/A,,Clear,200,2013-02-05 18:55:00
1:15 PM,44.6,33.8,66,29.89,10.0,SSW,8.1,-,N/A,,Clear,210,2013-02-05 19:15:00
1:35 PM,46.4,35.6,66,29.88,10.0,SSW,8.1,-,N/A,,Clear,210,2013-02-05 19:35:00
1:55 PM,46.4,35.6,66,29.88,10.0,SSW,10.4,-,N/A,,Clear,210,2013-02-05 19:55:00
2:15 PM,48.2,35.6,62,29.88,10.0,SSW,6.9,-,N/A,,Clear,210,2013-02-05 20:15:00
2:35 PM,48.2,35.6,62,29.89,10.0,SW,6.9,-,N/A,,Clear,230,2013-02-05 20:35:00
2:55 PM,50.0,35.6,58,29.89,10.0,SW,9.2,-,N/A,,Clear,230,2013-02-05 20:55:00
3:15 PM,48.2,35.6,62,29.89,10.0,WSW,6.9,-,N/A,,Clear,240,2013-02-05 21:15:00
3:35 PM,50.0,37.4,62,29.90,10.0,West,9.2,-,N/A,,Clear,260,2013-02-05 21:35:00
3:55 PM,48.2,37.4,66,29.91,10.0,West,8.1,-,N/A,,Clear,270,2013-02-05 21:55:00
4:15 PM,48.2,37.4,66,29.91,10.0,West,5.8,-,N/A,,Clear,280,2013-02-05 22:15:00
4:35 PM,46.4,37.4,71,29.91,10.0,WNW,5.8,-,N/A,,Clear,290,2013-02-05 22:35:00
4:55 PM,44.6,35.6,71,29.92,10.0,West,5.8,-,N/A,,Clear,280,2013-02-05 22:55:00
5:15 PM,42.8,35.6,76,29.93,10.0,WNW,4.6,-,N/A,,Clear,290,2013-02-05 23:15:00
5:35 PM,42.8,35.6,76,29.94,10.0,WNW,3.5,-,N/A,,Clear,290,2013-02-05 23:35:00
5:55 PM,39.2,33.8,81,29.95,10.0,West,3.5,-,N/A,,Clear,270,2013-02-05 23:55:00
6:15 PM,41.0,35.6,81,29.96,10.0,Calm,Calm,-,N/A,,Scattered Clouds,0,2013-02-06 00:15:00
6:35 PM,37.4,33.8,87,29.97,10.0,West,3.5,-,N/A,,Scattered Clouds,270,2013-02-06 00:35:00
6:55 PM,37.4,33.8,87,29.99,10.0,WNW,6.9,-,N/A,,Clear,290,2013-02-06 00:55:00
7:15 PM,37.4,33.8,87,30.00,10.0,WNW,9.2,-,N/A,,Clear,300,2013-02-06 01:15:00
7:35 PM,37.4,33.8,87,30.01,10.0,NW,9.2,-,N/A,,Clear,310,2013-02-06 01:35:00
7:55 PM,39.2,33.8,81,30.01,10.0,NW,9.2,-,N/A,,Clear,310,2013-02-06 01:55:00
8:15 PM,37.4,33.8,87,30.02,10.0,NW,6.9,-,N/A,,Clear,310,2013-02-06 02:15:00
8:35 PM,37.4,32.0,81,30.04,10.0,NW,5.8,-,N/A,,Clear,320,2013-02-06 02:35:00
8:55 PM,35.6,32.0,87,30.05,10.0,NW,3.5,-,N/A,,Clear,320,2013-02-06 02:55:00
9:15 PM,33.8,30.2,87,30.06,10.0,WNW,5.8,-,N/A,,Clear,300,2013-02-06 03:15:00
9:35 PM,35.6,32.0,87,30.07,10.0,NW,10.4,-,N/A,,Clear,320,2013-02-06 03:35:00
9:55 PM,37.4,32.0,81,30.08,10.0,NNW,9.2,-,N/A,,Clear,330,2013-02-06 03:55:00
10:15 PM,35.6,32.0,87,30.09,10.0,NW,10.4,-,N/A,,Clear,320,2013-02-06 04:15:00
10:35 PM,35.6,32.0,87,30.10,10.0,NW,9.2,-,N/A,,Clear,320,2013-02-06 04:35:00
10:55 PM,35.6,30.2,81,30.10,10.0,NNW,9.2,-,N/A,,Clear,330,2013-02-06 04:55:00
11:15 PM,35.6,30.2,81,30.11,10.0,NNW,6.9,-,N/A,,Clear,340,2013-02-06 05:15:00
11:35 PM,33.8,30.2,87,30.12,10.0,North,4.6,-,N/A,,Clear,350,2013-02-06 05:35:00
11:55 PM,33.8,30.2,87,30.12,10.0,NNW,6.9,-,N/A,,Clear,340,2013-02-06 05:55:00